Goodland, KS

1:45 PM MST on February 11, 2016 (GMT -0700)
Renner-Goodland Municipal

Weather History for KGLD - March, 2014

Change the Weather History Date:

Monday, March 10, 2014

  Actual Average Record
Temperature  
Mean Temperature 51 °F 39 °F  
Max Temperature 73 °F 53 °F 87 °F (1989)
Min Temperature 29 °F 25 °F -20 °F (1948)
Degree Days  
Heating Degree Days 14 26  
Month to date heating degree days 286 274  
Since 1 July heating degree days 4830 4691  
Cooling Degree Days 0 0  
Month to date cooling degree days 0 0  
Year to date cooling degree days 0 0  
Moisture  
Dew Point 17 °F    
Average Humidity 36    
Maximum Humidity 63    
Minimum Humidity 9    
Precipitation  
Precipitation 0.00 in 0.03 in 0.54 in (1963)
Month to date precipitation 0.06 0.28  
Year to date precipitation 1.00 1.15  
Snow  
Snow 0.00 in 0.20 in - ()
Month to date snowfall 0.6 1.9  
Since 1 July snowfall 25.8 25.9  
Snow Depth 0.00 in    
Sea Level Pressure  
Sea Level Pressure 29.79 in    
Wind  
Wind Speed 11 mph (SW)    
Max Wind Speed 22 mph    
Max Gust Speed 25 mph    
Visibility 10 miles    
Events      
T = Trace of Precipitation, MM = Missing Value Source: NWS Daily Summary

Daily Weather History Graph

Daily Weather History Graph

Search for Another Location

Airport or City:

Trip Planner

Search our weather history database for the weather conditions in past years. The results will help you decide how hot, cold, wet, or windy it might be!

Date:

Astronomy

Mar. 10, 2014 Rise Set
Actual Time 7:05 AM MDT 6:48 PM MDT
Civil Twilight 6:39 AM MDT 7:15 PM MDT
Nautical Twilight 6:08 AM MDT 7:46 PM MDT
Astronomical Twilight 5:36 AM MDT 8:17 PM MDT
Moon 1:35 PM MDT (3/10) 3:17 AM MDT (3/10)
Length of Visible Light 12h 36m
Length of Day
11h 42m
Waxing Gibbous, 70% of the Moon is Illuminated
Mar 10
Waxing Gibbous
Mar 16
Full
Mar 23
Last Quarter
Mar 30
New
Apr 7
First Quarter

Hourly Weather History & Observations

Time (MDT) Temp. Windchill Dew Point Humidity Pressure Visibility Wind Dir Wind Speed Gust Speed Precip Events Conditions
12:53 AM 35.1 °F 31.0 °F 18.0 °F 50% 29.95 in 10.0 mi WNW 4.6 mph - N/A   Clear
1:53 AM 37.9 °F 34.4 °F 19.0 °F 47% 29.94 in 10.0 mi West 4.6 mph - N/A   Clear
2:53 AM 37.0 °F 32.4 °F 19.0 °F 48% 29.92 in 10.0 mi WSW 5.8 mph - N/A   Clear
3:53 AM 35.1 °F 27.9 °F 18.0 °F 50% 29.91 in 10.0 mi WSW 9.2 mph - N/A   Clear
4:53 AM 33.1 °F 25.5 °F 18.0 °F 54% 29.91 in 10.0 mi WSW 9.2 mph - N/A   Clear
5:53 AM 28.9 °F 22.8 °F 18.0 °F 64% 29.93 in 10.0 mi West 5.8 mph - N/A   Clear
6:53 AM 32.0 °F 22.5 °F 19.0 °F 59% 29.94 in 10.0 mi West 12.7 mph - N/A   Clear
7:53 AM 34.0 °F 25.5 °F 19.9 °F 56% 29.96 in 10.0 mi West 11.5 mph - N/A   Clear
8:53 AM 44.1 °F 38.1 °F 24.1 °F 45% 29.93 in 10.0 mi WNW 11.5 mph - N/A   Clear
9:53 AM 60.1 °F - 21.9 °F 23% 29.92 in 10.0 mi West 9.2 mph - N/A   Clear
10:53 AM 66.9 °F - 16.0 °F 14% 29.88 in 10.0 mi WNW 11.5 mph - N/A   Clear
11:53 AM 69.1 °F - 12.9 °F 11% 29.84 in 10.0 mi Variable 3.5 mph - N/A   Clear
12:53 PM 70.0 °F - 10.0 °F 10% 29.82 in 10.0 mi North - - N/A   Clear
1:53 PM 71.1 °F - 10.9 °F 10% 29.77 in 10.0 mi South 10.4 mph - N/A   Clear
2:53 PM 72.0 °F - 12.9 °F 10% 29.74 in 10.0 mi South 17.3 mph - N/A   Clear
3:53 PM 72.0 °F - 17.1 °F 12% 29.71 in 10.0 mi South 16.1 mph 24.2 mph N/A   Clear
4:53 PM 72.0 °F - 12.9 °F 10% 29.69 in 10.0 mi South 19.6 mph - N/A   Clear
5:53 PM 69.1 °F - 15.1 °F 13% 29.69 in 10.0 mi South 12.7 mph - N/A   Clear
6:53 PM 57.0 °F - 18.0 °F 22% 29.70 in 10.0 mi South 11.5 mph - N/A   Clear
7:53 PM 52.0 °F - 19.0 °F 27% 29.69 in 10.0 mi South 11.5 mph - N/A   Clear
8:53 PM 54.0 °F - 19.9 °F 26% 29.63 in 10.0 mi South 10.4 mph - N/A   Clear
9:53 PM 48.9 °F - 21.9 °F 35% 29.58 in 10.0 mi South 11.5 mph - N/A   Clear
10:53 PM 42.1 °F 36.1 °F 21.0 °F 43% 29.55 in 10.0 mi South 10.4 mph - N/A   Clear
11:53 PM 48.0 °F - 19.0 °F 32% 29.49 in 10.0 mi South 13.8 mph - N/A   Clear